This demonstration page uses our WeatherBlox Daily Observations layout. Learn more.

Hourly Observations for November 1, 2016

Temp ( °F °C ) Dew Point ( °F °C ) Humidity (%) Winds ( mph kmh ) Pressure ( in mb ) Visibility ( mi km ) Precip ( " mm )
12:54 am 00:54 Clear 54 12.2 51 10.6 90 90 Calm 29.73 1007 9 14.48406 0 0
1:54 am 01:54 Clear 52 11.1 50 10 93 93 VRB 5 7 29.75 1008 9 14.48406 0 0
2:54 am 02:54 Clear 56 13.3 49 9.4 77 77 Calm 29.78 1008 10 16.0934 0 0
3:54 am 03:54 Clear 52 11.1 47 8.3 83 83 N 3 6 29.79 1009 10 16.0934 0 0
4:54 am 04:54 Clear 48 8.9 45 7.2 89 89 NW 5 7 29.8 1009 10 16.0934 0 0
5:54 am 05:54 Clear 51 10.6 45 7.2 80 80 Calm 29.82 1010 10 16.0934 0 0
6:54 am 06:54 Clear 50 10 45 7.2 83 83 N 5 7 29.85 1011 10 16.0934 0 0
7:54 am 07:54 Clear 49 9.4 45 7.2 86 86 N 5 7 29.87 1011 10 16.0934 0 0
8:54 am 08:54 Sunny 51 10.6 47 8.3 86 86 N 7 11 29.91 1013 10 16.0934 0 0
9:54 am 09:54 Sunny 56 13.3 50 10 81 81 NNE 9 15 29.91 1013 10 16.0934 0 0
10:54 am 10:54 Sunny 63 17.2 47 8.3 56 56 ENE 14 22 29.91 1013 10 16.0934 0 0
11:54 am 11:54 Sunny 65 18.3 48 8.9 54 54 NE 12 19 29.91 1013 10 16.0934 0 0
12:54 pm 12:54 Sunny 68 20 45 7.2 44 44 ENE 14 22 29.89 1012 10 16.0934 0 0
1:54 pm 13:54 Sunny 73 22.8 42 5.6 33 33 NE 16 26 29.87 1011 10 16.0934 0 0
2:54 pm 14:54 Sunny 74 23.3 40 4.4 29 29 ENE 17 28 29.85 1011 10 16.0934 0 0
3:54 pm 15:54 Sunny 75 23.9 40 4.4 28 28 ENE 15 24 29.86 1011 10 16.0934 0 0
4:54 pm 16:54 Sunny 72 22.2 40 4.4 31 31 ENE 13 20 29.88 1012 10 16.0934 0 0
5:54 pm 17:54 Sunny 67 19.4 41 5 39 39 NE 9 15 29.89 1012 10 16.0934 0 0
6:54 pm 18:54 Clear 63 17 55 13 77 77 SSE 6 9 29.65 1004 10 16.0934 0 0
7:54 pm 19:54 Cloudy 67 19.4 38 3.3 35 35 ENE 12 19 29.93 1014 10 16.0934 0 0
8:54 pm 20:54 Cloudy 67 19.4 39 3.9 36 36 ENE 15 24 29.93 1014 10 16.0934 0 0
9:54 pm 21:54 Mostly Cloudy 62 16.7 40 4.4 44 44 NNE 10 17 29.94 1014 10 16.0934 0 0
10:54 pm 22:54 Mostly Cloudy 63 17.2 41 5 45 45 NE 12 19 29.95 1014 10 16.0934 0 0
11:54 pm 23:54 Cloudy 61 16.1 41 5 48 48 NNE 10 17 29.94 1014 10 16.0934 0 0

Powered by AerisWeather